Tracking 19146 objects as of 22-Apr-2018
HD Live streaming from Space Station
objects crossing your sky now

FENGYUN 1C DEB

Track FENGYUN 1C DEB now!
10-day predictions


NORAD ID: 30835
Int'l Code: 1999-025AVV
Perigee: 464.5 km
Apogee: 648.2 km
Inclination: 98.8 °
Period: 95.6 minutes
Semi major axis: 6927 km
RCS: 0.0137 m2 (small)
Launch date: May 10, 1999
Source: People's Republic of China (PRC)
Launch site: Taiyaun Space Center, China (TSC)

Note: This is SATELLITE DEBRIS
aabbcc
Your satellite tracking list
Your tracking list is empty




NASA's NSSDC Master Catalog

Two Line Element Set (TLE):
1 30835U 99025AVV 18112.56367466 +.00001676 +00000-0 +10056-3 0  9995
2 30835 098.7565 157.1537 0132588 253.5811 105.0804 15.05733219601946
Source of the keplerian elements: AFSPC